Location: Cherryland
(37.6794°N, 122.1033°W)
Time: 14:21:27
(UTC+00:00)

Cosmos 2333 Rocket - Pass Details

Date: 14 December 2025
Orbit: 838 x 865 km, 70.8° (Epoch: 17 January)

Event Time Altitude Azimuth Distance (km) Brightness Sun altitude
Exits shadow 13:38:25 27° 316° (NW) 1,583 3.1 -18.6°
Maximum altitude 13:41:18 53° 253° (WSW) 1,051 2.4 -18.1°
Drops below altitude 10° 13:46:49 10° 178° (S) 2,476 4.9 -17.1°
Sets 13:49:18 0° 173° (S) 3,404 5.7 -16.6°
